EHI
6 3 1 0 0 1 1 1 0 1 4 9 13 15 17 16 12 9 12 25 38 42 39 41 47 45 33 24 17 11 6 3 1 0 0 0 0 0 0 0 0 0 0 0 0 0 0 0 0
2 1 0 0 1 2 2 1 1 2 7 14 18 18 17 15 13 13 20 34 47 46 40 42 48 46 34 23 16 10 5 2 0 0 0 0 0 0 0 0 0 0 0 0 0 0 0 0 0
0 0 0 0 2 3 2 1 2 4 10 17 22 21 16 13 16 21 35 52 58 52 45 46 49 45 33 22 14 10 6 2 0 0 0 0 0 0 0 0 0 0 0 0 0 0 0 0 0
0 0 0 1 3 3 1 2 5 9 14 21 26 24 18 18 27 39 55 66 65 58 52 50 50 43 31 23 16 13 8 3 0 0 0 0 0 0 0 0 0 0 0 0 0 0 0 0 0
0 0 0 0 1 1 1 4 9 13 18 26 32 29 24 31 48 60 66 71 71 64 56 53 50 41 31 25 21 17 11 6 2 1 0 0 0 0 0 0 0 0 0 0 0 1 1 1 0
0 0 0 0 0 0 1 4 8 13 19 27 34 33 30 41 59 66 66 69 72 68 59 53 49 40 31 26 23 19 14 8 4 2 1 0 0 0 0 0 0 0 0 0 1 2 2 2 1
0 0 0 0 0 0 1 3 6 11 16 24 33 35 35 43 56 60 63 67 70 68 61 52 44 37 30 25 22 18 14 10 6 3 1 0 0 0 0 0 0 0 0 0 1 2 3 3 3
0 0 0 0 0 0 0 2 6 12 19 25 30 35 37 43 52 58 62 66 67 64 58 49 40 34 28 23 20 16 12 9 6 3 1 0 0 0 0 0 0 0 0 0 1 2 3 5 5
0 0 0 0 0 0 0 1 6 17 28 31 31 34 39 44 52 59 63 64 62 55 48 44 39 33 27 22 17 14 10 7 5 2 1 1 0 0 0 0 0 0 0 0 0 1 4 5 5
0 0 0 0 0 0 1 3 8 19 29 34 35 36 39 44 53 60 62 59 54 47 40 38 35 29 24 20 16 11 7 5 3 2 1 1 0 0 0 0 0 0 0 0 0 1 3 3 2
0 0 0 0 0 0 2 4 6 13 21 29 35 38 40 44 52 59 58 53 49 44 39 33 30 25 19 16 13 8 5 4 3 2 1 0 0 0 1 1 1 1 0 0 0 0 1 0 0
0 0 0 1 1 1 2 3 4 7 14 25 35 39 41 45 51 55 54 50 48 44 38 31 25 19 14 12 10 7 4 3 3 2 1 0 0 0 0 1 1 1 0 0 0 0 0 0 0
0 0 0 1 2 2 3 5 6 9 16 28 36 38 40 44 49 52 52 51 50 45 37 29 22 15 10 9 8 6 3 2 2 2 1 0 0 0 0 0 0 0 0 0 0 0 0 0 0
0 0 0 1 1 1 3 7 9 13 22 33 37 37 39 43 47 50 52 52 51 47 38 30 23 16 11 10 9 7 3 1 1 1 0 0 0 0 0 0 0 0 0 0 0 0 0 0 0
0 0 0 0 0 0 3 7 10 16 25 35 38 37 38 42 46 48 49 49 48 45 39 31 24 19 16 13 11 9 5 2 0 0 0 0 0 0 0 0 0 0 0 0 0 0 0 0 0
0 0 0 0 0 0 2 6 10 16 26 35 40 41 42 44 44 43 43 43 41 39 35 30 25 23 19 14 10 7 5 3 1 0 0 0 0 0 0 1 1 1 1 0 0 0 0 0 0
0 0 0 0 0 0 1 5 11 16 25 36 43 47 47 45 41 37 36 35 32 30 29 28 27 24 19 14 8 6 5 3 2 1 1 1 0 0 0 1 2 2 1 0 0 0 0 0 0
0 0 0 0 0 1 2 6 13 19 27 37 45 50 50 44 36 32 32 30 26 25 25 27 27 23 18 13 9 6 4 3 2 2 2 1 0 0 0 0 1 1 1 0 0 0 0 0 0
0 0 0 0 0 1 3 8 15 22 30 39 45 48 47 41 34 29 29 26 24 23 23 24 23 19 15 11 7 5 3 3 3 3 2 1 0 0 0 0 0 0 0 0 0 0 0 0 0
0 0 0 0 0 1 3 7 14 21 29 37 44 46 44 39 32 28 26 24 21 20 18 17 16 13 9 6 4 2 1 2 2 2 1 0 0 0 0 0 0 0 0 0 0 0 0 0 0
0 0 0 0 0 1 2 5 10 16 23 33 42 45 42 36 31 26 23 21 19 16 13 12 10 7 3 3 2 1 0 1 1 1 0 0 0 0 0 0 0 0 0 0 0 0 0 0 0
0 0 0 0 1 1 1 2 5 11 17 27 36 39 36 33 29 25 21 19 16 12 10 9 6 3 1 1 1 0 0 0 0 0 0 0 0 0 0 0 0 0 0 0 0 0 0 0 0
0 0 0 0 0 0 0 0 3 8 13 20 27 31 31 29 26 23 20 18 14 11 9 7 5 2 1 0 0 0 0 0 0 0 0 0 0 0 0 0 0 0 0 0 0 0 0 0 0
0 0 0 0 0 0 0 0 1 4 8 15 21 26 28 27 23 21 19 18 14 12 9 6 5 3 1 0 0 0 0 0 0 0 0 0 0 0 0 0 0 0 0 0 0 0 0 0 0
0 0 0 0 0 0 0 0 0 1 5 12 18 22 23 23 21 21 20 19 16 14 10 6 4 2 0 0 0 0 0 0 0 0 0 0 0 0 0 0 0 0 0 0 0 0 0 0 0
0 0 0 0 0 0 0 0 0 1 4 9 15 20 21 21 21 21 21 20 18 16 10 5 2 0 0 0 0 0 0 0 0 0 0 0 0 0 0 0 0 0 0 0 0 0 0 0 0
0 0 0 0 0 0 0 0 0 1 3 8 13 19 21 22 22 22 21 20 20 18 10 3 1 1 0 0 0 0 0 0 0 0 0 0 0 0 0 0 0 0 0 0 0 0 0 0 0
0 0 0 0 0 0 0 0 0 1 3 7 11 15 19 21 23 23 21 19 19 17 9 3 2 2 1 1 1 0 0 0 0 0 0 0 0 0 0 0 0 0 0 0 0 0 0 0 0
0 0 0 0 0 0 0 0 0 0 2 6 8 10 14 20 23 23 20 16 15 14 9 3 3 3 3 2 2 1 0 0 0 0 0 0 0 0 0 0 0 0 0 0 0 0 0 0 0
0 0 0 0 0 0 0 0 0 0 1 4 6 8 12 19 24 23 19 15 13 13 8 4 3 4 3 3 3 2 1 0 0 0 0 0 0 0 0 0 0 0 0 0 0 0 0 0 0
Wind_Speed
6 4 2 1 3 3 3 4 4 3 2 3 7 10 10 6 4 4 5 14 18 18 15 18 20 20 20 19 18 18 18 17 17 17 17 16 16 16 16 15 15 15 15 15 14 14 14 14 13
3 4 2 2 3 1 5 4 3 3 7 8 9 9 9 6 6 8 8 15 19 18 14 16 22 21 20 19 18 18 18 17 17 16 16 16 16 15 15 15 15 14 14 14 14 13 13 13 12
3 3 2 2 2 4 4 3 3 5 7 7 6 5 6 6 7 7 10 18 17 15 13 17 23 21 20 19 18 18 17 17 17 16 16 16 15 15 15 15 14 14 14 13 13 12 12 11 11
1 2 1 1 6 7 5 5 4 6 6 7 8 6 4 3 6 12 18 18 17 13 12 17 23 21 20 20 19 18 17 17 16 16 15 15 15 15 15 14 14 13 13 12 11 11 10 10 10
2 2 2 3 6 5 4 3 6 7 5 7 9 7 4 4 13 19 19 19 17 13 11 15 22 22 21 20 19 18 17 17 16 16 15 14 14 15 14 14 13 13 12 11 10 10 9 9 9
2 3 1 4 7 5 4 3 8 9 9 7 9 8 3 6 13 16 16 16 16 15 12 13 21 22 21 20 19 18 18 17 16 16 15 14 14 14 14 14 13 12 12 10 9 8 8 7 7
2 1 3 5 6 5 2 2 6 8 8 5 7 8 5 6 11 13 14 14 14 14 12 9 12 16 20 20 19 18 17 17 16 15 15 14 14 14 13 13 12 12 11 9 8 7 6 6 5
4 2 3 3 4 4 1 2 6 7 7 6 6 9 6 7 11 13 13 12 12 11 11 9 8 9 9 12 18 18 17 17 16 15 15 14 13 13 13 11 11 11 10 8 7 5 4 4 4
2 2 4 4 3 3 2 3 3 5 8 5 3 6 10 14 15 15 13 11 11 11 8 9 9 8 8 8 14 14 16 15 14 12 14 12 6 6 7 10 11 10 9 8 6 4 2 2 3
4 4 8 6 4 2 2 1 4 5 6 4 5 8 13 14 16 17 17 16 14 13 10 9 9 9 8 8 7 5 6 7 6 5 6 4 4 4 6 9 11 10 8 7 5 3 1 1 1
5 7 8 7 6 3 1 1 3 8 3 7 12 15 15 14 14 14 15 16 16 14 12 10 10 9 8 6 6 4 3 4 4 5 5 4 3 3 3 3 4 4 5 2 2 1 1 1 1
4 8 7 6 5 2 2 2 3 3 6 10 15 17 16 15 15 14 15 14 14 14 13 11 10 9 7 7 6 5 4 4 4 4 6 4 3 3 3 2 2 2 2 2 1 1 1 1 1
5 9 9 7 4 2 2 3 4 3 8 12 13 14 14 14 13 11 12 13 13 13 12 12 10 10 8 7 6 6 4 4 4 4 5 5 4 4 4 3 2 2 2 2 2 1 1 1 1
4 5 7 6 3 1 3 2 4 5 10 13 14 12 13 14 14 13 12 12 12 13 13 11 11 10 9 7 6 6 5 5 4 4 5 6 5 4 4 3 3 2 2 2 2 2 2 1 1
3 5 7 5 3 1 3 2 3 7 10 11 12 11 10 10 13 14 14 13 13 13 12 11 10 9 9 8 7 6 5 5 5 4 5 5 5 5 4 3 3 2 2 3 2 2 2 1 1
5 4 5 7 3 3 4 4 5 7 10 10 10 10 9 8 11 11 12 12 12 12 11 9 9 8 8 8 7 5 5 6 4 4 4 5 5 5 4 3 2 2 2 3 3 2 2 2 1
3 3 6 8 4 2 4 5 5 7 12 11 10 10 10 9 8 9 11 11 11 12 11 9 8 8 8 8 7 6 6 5 4 4 4 4 5 5 4 3 2 3 3 2 2 2 2 1 1
6 5 7 7 5 2 3 4 5 7 11 11 10 10 10 11 9 9 9 9 9 9 9 9 9 8 8 7 6 5 5 4 4 4 4 5 4 5 5 3 3 3 3 2 2 2 2 1 1
8 8 11 10 7 2 4 4 6 8 9 9 9 9 9 9 8 8 9 10 10 9 8 8 8 7 7 6 6 5 5 4 4 3 5 5 5 5 5 4 3 3 3 3 3 2 2 1 1
10 10 11 8 5 2 3 3 5 7 10 12 14 12 11 9 9 9 9 9 10 10 10 8 8 7 7 6 5 4 5 4 3 3 4 5 5 5 5 5 4 3 3 3 3 3 2 1 1
11 9 8 6 3 2 3 2 2 3 4 7 11 12 12 13 13 12 11 10 10 10 11 10 8 8 7 7 5 5 4 4 3 3 3 3 5 5 5 5 4 4 3 3 3 3 3 2 2
10 10 7 3 1 2 2 2 5 4 4 7 9 10 12 12 13 12 11 11 11 10 9 9 9 8 7 7 8 9 7 5 4 4 3 3 4 5 5 5 5 4 3 3 2 3 3 3 2
9 7 2 1 2 2 3 0 6 2 4 8 10 12 12 13 14 14 13 12 11 10 9 9 9 8 7 7 8 8 6 4 4 4 5 4 3 4 5 5 5 4 3 3 4 4 3 3 3
7 1 4 5 5 1 2 1 6 5 8 9 10 11 12 12 13 12 11 10 9 9 9 9 9 8 7 7 7 8 8 8 8 6 6 4 3 3 4 5 5 4 4 4 4 4 5 3 3
1 3 4 5 4 4 3 3 8 6 6 9 12 12 13 12 13 13 13 12 11 11 11 10 10 9 8 8 7 8 9 9 10 8 6 5 3 3 4 4 4 4 4 4 4 4 4 3 4
4 7 7 5 5 4 3 5 8 6 4 6 10 11 12 13 13 14 14 13 13 13 12 11 10 9 9 8 8 7 8 6 5 6 6 6 4 4 5 5 5 5 5 5 4 3 3 3 3
2 3 7 7 3 1 4 5 8 3 1 4 8 10 12 13 14 14 14 13 13 13 12 12 12 9 9 9 8 7 8 7 7 6 6 5 4 5 6 6 6 5 5 5 5 3 2 3 2
4 4 4 5 4 3 3 4 6 5 3 5 7 10 12 13 13 13 13 13 13 12 11 11 11 10 9 9 8 8 7 7 7 7 7 6 6 6 7 6 6 5 5 5 4 3 2 3 2
2 3 3 3 4 5 3 8 8 9 7 8 9 10 12 14 15 15 14 13 13 12 12 11 11 9 9 9 8 8 7 7 7 7 7 7 6 7 8 7 7 6 5 5 4 3 3 4 3
4 3 5 4 2 3 4 8 6 6 6 7 7 9 11 14 15 15 14 13 12 13 13 13 12 11 11 9 8 8 7 7 7 7 7 8 8 7 8 7 7 6 6 5 5 5 4 4 4
Wind_Direction
191 191 185 75 47 36 276 250 198 195 125 82 100 105 102 92 131 148 136 141 140 145 148 146 143 138 135 131 128 125 121 118 116 114 113 111 110 109 109 109 108 107 104 102 101 100 98 98 99
186 194 158 64 86 339 269 238 218 183 141 116 87 93 88 72 82 107 122 140 141 144 146 146 144 141 138 136 133 130 127 124 121 119 117 115 114 113 112 112 110 109 107 104 102 100 98 96 95
225 203 141 108 188 206 244 233 184 117 120 115 93 68 88 114 116 122 137 140 140 143 145 149 146 144 141 139 137 134 131 129 126 124 121 119 119 118 115 115 113 112 110 107 103 100 97 94 91
186 70 53 109 251 243 234 254 167 119 85 84 106 82 70 103 133 135 138 139 139 142 145 150 147 145 144 142 140 138 136 134 132 130 127 125 123 122 121 118 116 115 113 109 105 100 95 90 85
105 90 40 288 264 267 281 224 140 116 105 106 107 104 68 35 114 132 140 143 142 143 147 150 148 147 146 145 144 142 140 139 137 135 133 130 129 128 126 123 120 119 117 113 109 103 95 86 80
42 78 77 271 272 287 309 121 112 103 113 117 110 111 88 109 123 137 140 142 143 144 144 149 150 149 149 148 147 146 145 143 141 139 138 136 134 132 131 129 127 124 123 121 116 109 100 89 78
146 124 231 254 285 301 300 108 106 119 120 128 122 111 122 128 134 133 137 137 140 142 143 147 151 150 151 151 150 150 149 147 145 143 142 141 139 138 137 136 134 132 130 129 124 115 104 91 76
171 111 282 278 276 280 283 98 114 118 119 124 120 129 153 151 132 129 131 133 135 141 144 145 146 145 147 151 152 153 152 151 150 149 147 146 145 144 142 141 142 141 140 140 136 127 112 91 71
166 87 259 253 237 264 325 67 63 76 108 104 116 139 146 139 136 135 134 133 138 146 148 146 146 145 144 149 157 155 156 157 155 155 155 150 142 142 147 153 153 150 150 150 149 145 128 88 57
147 186 237 230 207 214 292 128 138 110 101 104 103 115 134 139 141 145 149 150 152 156 157 156 152 151 152 157 149 151 155 155 151 152 151 143 147 159 159 166 162 159 158 157 159 156 104 61 38
184 211 239 257 247 208 191 116 122 130 141 168 156 151 150 146 146 149 154 158 157 157 161 160 159 160 163 150 152 155 150 150 151 154 151 149 148 157 152 156 160 158 158 145 147 122 66 83 71
240 257 253 256 257 206 172 139 103 147 175 168 158 154 154 157 160 159 159 157 156 157 162 161 163 163 163 152 159 158 156 161 163 166 160 149 146 147 152 158 157 150 142 144 132 121 125 98 89
246 260 270 265 250 207 138 138 127 140 141 147 149 153 158 162 159 156 158 156 157 157 158 162 165 166 162 157 163 159 162 170 166 163 161 153 151 154 154 157 158 158 149 149 143 131 124 111 112
256 279 279 275 265 234 130 138 118 162 149 149 153 161 166 163 156 154 158 160 160 160 161 165 168 168 161 161 161 158 162 159 151 151 156 151 149 150 151 151 153 154 158 155 151 146 135 124 118
294 321 311 289 270 222 111 7 174 169 154 153 160 166 164 161 159 162 164 161 161 160 164 165 166 165 160 160 160 156 155 149 148 147 145 144 144 146 145 141 142 156 149 136 121 113 102 96 79
349 350 306 291 279 241 133 236 218 170 148 150 153 154 158 163 161 161 158 158 161 158 163 166 163 162 160 155 150 147 147 143 141 136 140 142 141 138 133 132 139 149 131 123 120 108 94 81 74
345 291 275 290 267 229 157 213 206 169 149 153 153 148 151 149 150 156 158 158 161 158 162 164 157 164 154 143 141 138 137 134 134 133 134 137 137 136 131 133 139 131 118 117 129 106 116 108 94
256 263 274 273 272 260 207 206 180 167 160 161 154 148 152 155 160 160 152 150 151 150 155 156 154 155 139 129 125 123 122 127 130 133 137 134 132 131 126 124 121 120 109 102 103 102 91 112 157
252 272 276 272 270 251 212 185 174 169 166 159 153 152 156 155 156 151 149 149 147 147 153 152 147 149 138 137 139 139 141 139 134 141 139 135 131 128 124 119 114 116 113 119 117 100 81 52 73
260 269 269 275 264 209 184 182 180 175 177 173 166 163 160 151 152 155 153 154 155 159 161 154 154 156 151 149 144 140 136 137 138 135 133 136 133 133 130 124 124 119 109 98 93 93 97 40 73
263 251 248 251 289 45 92 359 226 212 166 174 169 164 162 163 162 163 162 158 157 162 165 164 163 156 153 147 131 123 108 101 106 123 134 143 136 131 126 128 126 121 117 117 113 112 115 96 32
262 257 240 230 91 319 85 258 259 208 184 180 172 166 168 168 164 165 166 163 165 166 162 157 160 158 159 152 146 150 151 151 166 156 149 145 139 134 130 130 127 122 119 121 121 109 113 110 75
247 251 227 173 125 45 9 108 279 175 201 203 188 179 174 171 169 171 170 170 168 164 162 157 154 160 163 158 155 153 150 149 145 139 139 141 138 137 134 130 127 124 121 123 113 101 97 104 114
244 305 29 47 71 42 272 191 270 217 213 199 192 186 177 175 174 170 166 161 163 162 161 159 156 162 165 158 156 155 152 150 148 150 152 150 138 132 137 131 128 129 126 125 123 114 108 103 103
272 96 23 354 6 254 249 216 247 236 225 196 188 186 178 176 173 168 165 166 167 167 166 164 162 164 165 159 159 159 156 156 161 163 162 156 151 151 160 141 138 136 138 132 124 116 113 115 114
250 150 164 202 222 259 285 244 259 268 245 191 179 178 173 174 175 173 172 171 172 170 168 167 168 167 166 164 164 160 155 156 163 166 161 163 165 166 161 149 148 147 142 133 124 118 126 122 121
237 215 176 151 175 195 262 278 296 292 64 137 163 170 176 177 177 175 173 172 173 172 172 173 172 170 169 167 162 162 160 159 164 166 160 162 163 162 157 151 149 148 141 138 132 126 134 129 127
165 163 92 116 162 224 261 253 247 251 208 165 169 180 182 179 178 175 175 175 175 174 173 172 174 174 171 168 170 170 165 164 163 161 163 164 164 157 153 151 151 149 145 144 136 136 146 138 149
2 68 108 129 157 163 223 260 229 211 198 182 190 187 182 181 180 179 178 178 175 171 173 174 176 172 172 173 172 164 164 163 161 162 165 162 160 156 157 159 157 157 158 154 152 166 165 165 179
165 170 143 145 240 174 184 261 264 199 180 180 198 195 186 184 181 179 177 174 174 175 176 177 178 178 179 175 169 166 164 160 160 163 165 160 159 162 162 161 162 170 171 170 172 183 181 181 191